{"data":{"norad_id":37237,"intl_designator":"2010-065A","name":"HYLAS 1","alt_names":[],"object_type":"PAYLOAD","status":"ACTIVE","operator":null,"country":"UK","launch_date":"2010-11-26","launch_site_code":"FRGUI","launch_vehicle":null,"mission":null,"orbit_class":"UNKNOWN","rcs_meters":119.9526,"size_class":null,"mass_kg":null,"dimensions":null,"purposes":["comms"],"wikipedia_slug":null,"has_3d_model":false,"image_url":null,"decayed_at":null,"tle_current":{"epoch":"2026-05-25T02:05:54.777120Z","epoch_age_seconds":70667,"freshness":"FRESH","line1":"1 37237U 10065A   26145.08743955  .00000088  00000+0  00000+0 0  9997","line2":"2 37237   5.5875  73.2977 0001339 310.8732 263.7890  1.00272661  6656","mean_motion":1.00272661,"eccentricity":0.0001339,"inclination_deg":5.5875,"raan_deg":73.2977,"arg_perigee_deg":310.8732,"mean_anomaly_deg":263.789,"bstar":0,"rev_number":665,"period_min":1436.0843580286,"perigee_km":35780.703563651,"apogee_km":35791.995213106,"semimajor_km":42164.486388379,"source":"CELESTRAK","updated_at":"2026-05-25T13:38:13.896771Z"}}}